Regional Weather Roundup
Issued by NWS Green Bay, WI

Home | Current Version | Previous Version | Graphics & Text | Print | Product List | Glossary Off
Versions: 1 2 3 4 5 6 7 8 9 10 11 12 13 14 15 16 17 18 19 20 21 22 23 24 25 26 27 28 29 30 31 32 33 34 35 36 37 38 39 40 41 42 43 44 45 46 47 48 49 50

000
ASUS43 KGRB 290059
RWRGRB

NORTH-CENTRAL AND NORTHEAST WISCONSIN REGIONAL WEATHER ROUNDUP
NATIONAL WEATHER SERVICE GREEN BAY WI
800 PM CDT MON JUL 28 2014

WIZ005-009-010>012-018-019-290200-
NORTH CENTRAL WISCONSIN

CITY           SKY/WX    TMP DP  RH WIND       PRES   REMARKS
IRONWOOD       NOT AVBL
MANITOWISH WTR NOT AVBL
ARBOR VITAE    NOT AVBL
EAGLE RIVER    NOT AVBL
LAND O LAKES   NOT AVBL
RHINELANDER    PTCLDY    63  55  75 W5        30.09S
PHILLIPS       CLEAR     65  56  74 CALM      30.09S
ANTIGO         NOT AVBL
TOMAHAWK       NOT AVBL
MERRILL        NOT AVBL
$$

WIZ013-073-290200-
NORTHEAST WISCONSIN

CITY           SKY/WX    TMP DP  RH WIND       PRES   REMARKS
IRON MOUNTAIN  CLOUDY    67  52  58 W5        30.02F
MARINETTE      MOCLDY    64  55  72 SW3       30.01F
$$

WIZ017-030-035>037-045-290200-
CENTRAL WISCONSIN

CITY           SKY/WX    TMP DP  RH WIND       PRES   REMARKS
MEDFORD        NOT AVBL
WAUSAU         CLOUDY    65  55  70 W9        30.06F
MOSINEE        CLOUDY    66  54  63 NW6       30.10S
MARSHFIELD     CLOUDY    67  55  65 NW5       30.09F
WISC RAPIDS    CLOUDY    68  55  63 NW5       30.10S
STEVENS POINT  NOT AVBL
WAUPACA        CLOUDY    71  53  52 CALM      30.06S
SHAWANO        CLOUDY    68  56  65 W3        30.05F
CLINTONVILLE   MOCLDY    68  52  56 W5        30.05F
$$

WIZ038-039-048-051-290200-
FOX VALLEY

CITY           SKY/WX    TMP DP  RH WIND       PRES   REMARKS
NWS GREEN BAY  MOCLDY    66  56  70 W5        30.04S
APPLETON       MOCLDY    66  52  59 NW6       30.06S
OSHKOSH        CLOUDY    69  52  54 N7        30.05S
FOND DU LAC    CLOUDY    69  51  52 N6        30.05S
$$

WIZ022-050-052-290200-
EAST CENTRAL WISCONSIN

CITY           SKY/WX    TMP DP  RH WIND       PRES   REMARKS
STURGEON BAY   MOCLDY    59  48  67 S3        30.04S
MANITOWOC      NOT AVBL
SHEBOYGAN      CLOUDY    61  51  70 SW6       30.05F
$$

LMZ563-521-522-541>543-290200-
LAKESHORE

STATION/POSITION TIME  TEMP    WIND        PRES    VSBY  WAVE
                       AIR SEA DIR/SP/G                  HT/PER
                 (UTC) (F)     (DEG/KT/KT) (MB)    (MI)  (FT/S)
SHEBOYGAN LKSHOR 0000   60     170/  6/  7 1017.8F
KEWAUNEE LKSHORE 0000   57     170/  5/  5 1018.0F
TWO RIVERS CG    0000   57 61                N/A       6   0
NORTHPORT PIER   0000   67      CALM  /  3 1016.3S
N MID LAKE BUOY  0000   56 53  220/  8/  8 1016.0F         0
S GREEN BAY BUOY 0000   68 67  300/  8     1017.7S
SISTER BAY LKSHO 0000   67     240/  5/  6   N/A
STURGEON BAY CG  0000   55 50  180/  7     1017.8      6   2
CHAMBERS ISLAND  0000   65     180/  2/  5 1016.6F
MENOMINEE LKSHOR 0000   67     210/  5/  6 1017.2F
$$


USA.gov is the U.S. government's official web portal to all federal, state and local government web resources and services.